Location: Newark
(57.9389°N, 16.3988°E)
Time: 12:56:06
(UTC+00:00)

ISS - Visible Passes

Search period start: 20 January 2021 00:00
Search period end: 30 January 2021 00:00
Orbit: 418 x 419 km, 51.6° (Epoch: 20 January)

Date Brightness Start Highest point End Pass type
(mag) Time Alt. Az. Time Alt. Az. Time Alt. Az.
22 Jan -1.4 17:45:26 10° SSW 17:46:40 16° S 17:46:40 16° S visible
23 Jan -1.6 16:58:16 10° SSW 17:00:19 15° SSE 17:00:56 15° SE visible
23 Jan -0.7 18:33:30 10° SW 18:33:53 12° SW 18:33:53 12° SW visible
24 Jan -1.3 16:11:25 10° S 16:12:47 12° SSE 16:14:09 10° SE visible
24 Jan -1.9 17:45:58 10° SW 17:48:06 23° S 17:48:06 23° S visible
25 Jan -2.0 16:58:29 10° SW 17:01:09 22° SSE 17:02:18 18° SE visible
25 Jan -0.9 18:34:25 10° WSW 18:35:14 15° SW 18:35:14 15° SW visible
26 Jan -1.7 16:11:07 10° SSW 16:13:33 19° SSE 16:15:59 10° ESE visible
26 Jan -2.2 17:46:46 10° WSW 17:49:24 27° S 17:49:24 27° S visible
27 Jan -2.2 16:59:08 10° SW 17:02:02 27° S 17:03:34 19° SE visible
27 Jan -1.0 18:35:28 10° WSW 18:36:30 16° SW 18:36:30 16° SW visible
28 Jan -2.0 16:11:33 10° SW 16:14:21 25° SSE 16:17:11 10° ESE visible
28 Jan -2.2 17:47:42 10° WSW 17:50:34 26° S 17:50:40 26° S visible
29 Jan -2.1 16:59:57 10° WSW 17:02:54 28° S 17:04:51 16° SE visible
29 Jan -1.0 18:36:41 10° WSW 18:37:47 15° SW 18:37:47 15° SW visible
